sat.trackr.live / text

‹ back to catalog

SITRO-TD-3

NORAD 67270 · 2025-313Y

PAYLOAD ACTIVE UNKNOWN

§ Identity

Operator
Country
CIS
Launch date
2025-12-28
Launch site
VOSTO
Launch vehicle
Mass (kg)
RCS (m²)

External: N2YO · Heavens-Above · Gunter

§ Orbital elements

Epoch: 2026-09-20T10:38:31.172640Z

Period
94.44 min
Inclination
97.3862°
Eccentricity
0.0014590
Mean motion
15.24829823 rev/d
Perigee alt
481.3 km
Apogee alt
501.3 km
Semi-major
6,869.4 km
B*
2.3205e-4
RAAN
336.8134°
Arg perigee
34.6448°
Mean anomaly
325.5737°
Rev number
4,046

§ Raw data

SITRO-TD-31 67270U 25313Y   26263.44341635  .00005706  00000+0  23205-3 0  99972 67270  97.3862 336.8134 0014590  34.6448 325.5737 15.24829823 40465

JSON: /api/v1/satellites/67270 · /tle

For live sub-satellite position, see the globe view (requires WebGL).

§ Visibility from observer

Set your observer location to see the next 7 days of passes ≥ 10°. The values pass through the URL so the page stays shareable.

No JS? Fill the form by hand. The geolocation button needs JavaScript.